Regional Weather Roundup
Issued by NWS

Home | Current Version | Previous Version | Graphics & Text | Print | Product List | Glossary On
Versions: 1 2 3 4 5 6 7 8 9 10 11 12 13 14 15 16 17 18 19 20 21 22 23 24 25 26 27 28 29 30 31 32 33 34 35 36 37 38 39 40 41 42 43 44 45 46 47 48 49 50
000
ASUS43 KLMK 111202
RWRKY
KENTUCKY REGIONAL WEATHER ROUNDUP
NATIONAL WEATHER SERVICE LOUISVILLE KY
700 AM EST MON DEC 11 2017

NOTE "FAIR" INDICATES FEW OR NO CLOUDS BELOW 12,000 FEET
WITH NO SIGNIFICANT WEATHER AND/OR OBSTRUCTIONS TO VISIBILITY.

KYZ001>023-026-027-061>063-070>075-111300-
WESTERN AND SOUTH CENTRAL KENTUCKY

CITY           SKY/WX    TMP DP  RH WIND       PRES   REMARKS
PADUCAH        CLEAR     28  23  81 NE3       30.10S
HENDERSON      NOT AVBL
OWENSBORO      CLEAR     24  22  91 CALM      30.12S
HOPKINSVILLE   CLEAR     29  24  81 CALM      30.11F
BOWLING GREEN  CLEAR     25  22  88 CALM      30.13F
GLASGOW        NOT AVBL
$$

KYZ024-025-028>034-038-045-046-053-111300-
NORTH CENTRAL KENTUCKY

CITY           SKY/WX    TMP DP  RH WIND       PRES   REMARKS
LOUISVILLE/SDF CLEAR     28  23  81 S6        30.11S WCI  22
LOUISVILLE/LOU CLEAR     26  24  92 CALM      30.12S
FORT KNOX      CLEAR     26  22  86 CALM      30.09S
$$

KYZ035>037-039>044-047>052-055>060-089>105-111300-
NORTHEAST KENTUCKY

CITY           SKY/WX    TMP DP  RH WIND       PRES   REMARKS
LEXINGTON      CLEAR     26  20  77 S5        30.10S WCI  20
COVINGTON      CLEAR     20  18  92 S3        30.08S
FRANKFORT      CLEAR     23  17  78 CALM      30.09S
$$

KYZ054-064>069-076>088-106>120-111300-
SOUTHEAST KENTUCKY

CITY           SKY/WX    TMP DP  RH WIND       PRES   REMARKS
JACKSON        CLEAR     32  21  64 CALM      30.09S
LONDON         CLEAR     25  20  81 CALM      30.12R
SOMERSET       NOT AVBL
MIDDLESBORO    CLEAR     23  22  94 CALM      30.14F
MONTICELLO     SUNNY     20  18  92 NW8       30.15S WCI  10
$$





USA.gov is the U.S. government's official web portal to all federal, state and local government web resources and services.